When you browse on this site, cookies collect data to enhance your experience and personalize the content and advertising you see.
Visit our Privacy Policy to learn more. By continuing to use the site, you agree to this use of cookies and data.
  • En España
  • Lista de países
  • Para 7 días
  • Temperatura del agua
  • Mapa Satelital
  • El tiempo en el mapa
  • Informadores
  • user-avatar
    Iniciar sesión

    Tiempo cada hora Petrovac

    Hoy, 22 Mayo, Miércoles

    Tiempo Temperatura Precipitaciones Viento Presión Humedad
    00:00 +14°C° 0 mm 2 mps 743 mmHg 79%
    01:00 +14°C° 0 mm 2 mps 743 mmHg 79%
    02:00 +13°C° 0 mm 2 mps 743 mmHg 81%
    03:00 +12°C° 0 mm 2 mps 743 mmHg 83%
    04:00 +12°C° 0 mm 2 mps 743 mmHg 86%
    05:00 +13°C° 0 mm 2 mps 743 mmHg 82%
    06:00 +14°C° 0 mm 3 mps 743 mmHg 79%
    07:00 +16°C° 0 mm 3 mps 743 mmHg 76%
    08:00 +18°C° 0.1 mm 3 mps 743 mmHg 71%
    09:00 +19°C° 0.1 mm 3 mps 743 mmHg 65%
    10:00 +21°C° 0.1 mm 3 mps 743 mmHg 60%
    11:00 +21°C° 0.3 mm 3 mps 743 mmHg 60%
    12:00 +22°C° 0.3 mm 3 mps 743 mmHg 61%
    13:00 +22°C° 0.3 mm 3 mps 742 mmHg 61%
    14:00 +22°C° 0.5 mm 3 mps 742 mmHg 64%
    15:00 +23°C° 0.5 mm 2 mps 742 mmHg 66%
    16:00 +23°C° 0.5 mm 2 mps 742 mmHg 69%
    17:00 +20°C° 0.7 mm 2 mps 742 mmHg 75%
    18:00 +18°C° 0.7 mm 2 mps 742 mmHg 80%
    19:00 +17°C° 0.7 mm 2 mps 742 mmHg 86%
    20:00 +16°C° 0.1 mm 2 mps 743 mmHg 88%
    21:00 +15°C° 0.1 mm 1 mps 743 mmHg 91%
    22:00 +14°C° 0.1 mm 1 mps 743 mmHg 93%
    23:00 +14°C° 0 mm 1 mps 743 mmHg 94%

    Mañana, 23 Mayo, Jueves

    Tiempo Temperatura Precipitaciones Viento Presión Humedad
    00:00 +14°C° 0 mm 1 mps 744 mmHg 95%
    01:00 +13°C° 0 mm 1 mps 744 mmHg 96%
    02:00 +13°C° 0 mm 1 mps 744 mmHg 96%
    03:00 +13°C° 0 mm 1 mps 744 mmHg 97%
    04:00 +13°C° 0 mm 1 mps 744 mmHg 97%
    05:00 +14°C° 0 mm 2 mps 744 mmHg 94%
    06:00 +14°C° 0 mm 3 mps 744 mmHg 90%
    07:00 +14°C° 0 mm 4 mps 744 mmHg 87%
    08:00 +15°C° 0.1 mm 4 mps 744 mmHg 85%
    09:00 +15°C° 0.1 mm 4 mps 744 mmHg 83%
    10:00 +17°C° 0.1 mm 4 mps 744 mmHg 80%
    11:00 +17°C° 0.1 mm 4 mps 744 mmHg 77%
    12:00 +18°C° 0.1 mm 4 mps 744 mmHg 74%
    13:00 +19°C° 0.1 mm 4 mps 743 mmHg 71%
    14:00 +19°C° 0 mm 4 mps 743 mmHg 71%
    15:00 +19°C° 0 mm 4 mps 743 mmHg 71%
    16:00 +20°C° 0 mm 4 mps 742 mmHg 70%
    17:00 +18°C° 0.1 mm 3 mps 742 mmHg 77%
    18:00 +17°C° 0.1 mm 3 mps 743 mmHg 84%
    19:00 +15°C° 0.1 mm 2 mps 743 mmHg 91%
    20:00 +14°C° 0 mm 2 mps 743 mmHg 93%
    21:00 +14°C° 0 mm 2 mps 743 mmHg 94%
    22:00 +13°C° 0 mm 2 mps 743 mmHg 96%
    23:00 +13°C° 0.1 mm 2 mps 743 mmHg 95%

    Pasado mañana, 24 Mayo, Viernes

    Tiempo Temperatura Precipitaciones Viento Presión Humedad
    00:00 +13°C° 0.1 mm 2 mps 743 mmHg 95%
    01:00 +14°C° 0.1 mm 2 mps 743 mmHg 95%
    02:00 +14°C° 0.1 mm 2 mps 743 mmHg 95%
    03:00 +13°C° 0.1 mm 2 mps 743 mmHg 96%
    04:00 +13°C° 0.1 mm 2 mps 743 mmHg 96%
    05:00 +12°C° 0.1 mm 3 mps 743 mmHg 96%
    06:00 +12°C° 0.1 mm 3 mps 743 mmHg 95%
    07:00 +12°C° 0.1 mm 3 mps 743 mmHg 95%
    08:00 +12°C° 0.1 mm 3 mps 743 mmHg 94%
    09:00 +13°C° 0.1 mm 2 mps 743 mmHg 93%
    10:00 +13°C° 0.1 mm 2 mps 743 mmHg 93%
    11:00 +14°C° 0.1 mm 2 mps 742 mmHg 90%
    12:00 +15°C° 0.1 mm 2 mps 742 mmHg 88%
    13:00 +16°C° 0.1 mm 3 mps 742 mmHg 86%
    14:00 +17°C° 0.4 mm 3 mps 742 mmHg 84%
    15:00 +18°C° 0.4 mm 3 mps 741 mmHg 83%
    16:00 +18°C° 0.4 mm 3 mps 741 mmHg 81%
    17:00 +17°C° 0.4 mm 3 mps 741 mmHg 85%
    18:00 +16°C° 0.4 mm 2 mps 741 mmHg 88%
    19:00 +15°C° 0.4 mm 1 mps 741 mmHg 92%
    20:00 +14°C° 0 mm 1 mps 742 mmHg 92%
    21:00 +14°C° 0 mm 1 mps 742 mmHg 93%
    22:00 +13°C° 0 mm 1 mps 742 mmHg 94%
    23:00 +13°C° 0 mm 1 mps 742 mmHg 94%

    25 Mayo, Sábado

    Tiempo Temperatura Precipitaciones Viento Presión Humedad
    00:00 +12°C° 0 mm 1 mps 742 mmHg 95%
    01:00 +12°C° 0 mm 1 mps 742 mmHg 95%
    02:00 +12°C° 0 mm 1 mps 742 mmHg 95%
    03:00 +11°C° 0 mm 1 mps 743 mmHg 95%
    04:00 +11°C° 0 mm 1 mps 743 mmHg 95%
    05:00 +12°C° 0 mm 1 mps 743 mmHg 91%
    06:00 +14°C° 0 mm 1 mps 743 mmHg 87%
    07:00 +15°C° 0 mm 2 mps 743 mmHg 84%
    08:00 +17°C° 0 mm 2 mps 743 mmHg 78%
    09:00 +18°C° 0 mm 3 mps 744 mmHg 73%
    10:00 +20°C° 0 mm 3 mps 744 mmHg 68%
    11:00 +21°C° 0 mm 3 mps 744 mmHg 66%
    12:00 +21°C° 0 mm 4 mps 743 mmHg 64%
    13:00 +22°C° 0 mm 4 mps 743 mmHg 61%
    14:00 +22°C° 0 mm 4 mps 743 mmHg 63%
    15:00 +22°C° 0 mm 3 mps 743 mmHg 64%
    16:00 +22°C° 0 mm 3 mps 743 mmHg 65%
    17:00 +20°C° 0 mm 2 mps 743 mmHg 71%
    18:00 +19°C° 0 mm 2 mps 743 mmHg 78%
    19:00 +18°C° 0 mm 1 mps 743 mmHg 84%
    20:00 +16°C° 0 mm 1 mps 743 mmHg 85%
    21:00 +15°C° 0 mm 1 mps 744 mmHg 86%
    22:00 +15°C° 0 mm 1 mps 744 mmHg 87%
    23:00 +14°C° 0 mm 1 mps 744 mmHg 88%

    26 Mayo, Domingo

    Tiempo Temperatura Precipitaciones Viento Presión Humedad
    00:00 +14°C° 0 mm 1 mps 744 mmHg 89%
    01:00 +13°C° 0 mm 2 mps 744 mmHg 89%
    02:00 +13°C° 0 mm 2 mps 744 mmHg 90%
    03:00 +13°C° 0 mm 2 mps 744 mmHg 90%
    04:00 +12°C° 0 mm 2 mps 744 mmHg 90%
    05:00 +14°C° 0 mm 2 mps 744 mmHg 84%
    06:00 +16°C° 0 mm 2 mps 744 mmHg 79%
    07:00 +18°C° 0 mm 2 mps 744 mmHg 73%
    08:00 +20°C° 0 mm 2 mps 744 mmHg 67%
    09:00 +21°C° 0 mm 2 mps 744 mmHg 62%
    10:00 +24°C° 0 mm 2 mps 744 mmHg 56%
    11:00 +25°C° 0 mm 2 mps 744 mmHg 54%
    12:00 +25°C° 0 mm 2 mps 743 mmHg 52%
    13:00 +26°C° 0 mm 2 mps 743 mmHg 49%
    14:00 +26°C° 0 mm 2 mps 743 mmHg 51%
    15:00 +26°C° 0 mm 2 mps 743 mmHg 54%
    16:00 +26°C° 0 mm 2 mps 743 mmHg 56%
    17:00 +24°C° 0 mm 1 mps 743 mmHg 62%
    18:00 +22°C° 0 mm 1 mps 743 mmHg 68%
    19:00 +20°C° 0 mm 1 mps 743 mmHg 75%
    20:00 +19°C° 0 mm 1 mps 743 mmHg 77%
    21:00 +18°C° 0 mm 1 mps 744 mmHg 80%
    22:00 +18°C° 0 mm 1 mps 744 mmHg 82%
    23:00 +16°C° 0 mm 1 mps 744 mmHg 84%

    27 Mayo, Lunes

    Tiempo Temperatura Precipitaciones Viento Presión Humedad
    00:00 +16°C° 0 mm 1 mps 744 mmHg 86%
    01:00 +15°C° 0 mm 1 mps 744 mmHg 88%
    02:00 +15°C° 0 mm 1 mps 744 mmHg 89%
    03:00 +15°C° 0 mm 1 mps 744 mmHg 89%
    04:00 +15°C° 0 mm 1 mps 744 mmHg 90%
    05:00 +18°C° 0 mm 1 mps 744 mmHg 85%
    06:00 +19°C° 0 mm 1 mps 745 mmHg 80%
    07:00 +21°C° 0 mm 1 mps 745 mmHg 76%
    08:00 +23°C° 0 mm 1 mps 745 mmHg 70%
    09:00 +25°C° 0 mm 1 mps 745 mmHg 63%
    10:00 +26°C° 0 mm 1 mps 745 mmHg 57%
    11:00 +27°C° 0 mm 1 mps 744 mmHg 54%
    12:00 +26°C° 0 mm 0 mps 744 mmHg 51%
    13:00 +27°C° 0 mm 0 mps 743 mmHg 48%
    14:00 +27°C° 0 mm 0 mps 743 mmHg 48%
    15:00 +27°C° 0 mm 0 mps 743 mmHg 49%
    16:00 +26°C° 0 mm 0 mps 743 mmHg 50%
    17:00 +27°C° 0 mm 1 mps 743 mmHg 56%
    18:00 +25°C° 0 mm 1 mps 743 mmHg 62%
    19:00 +23°C° 0 mm 2 mps 742 mmHg 68%
    20:00 +21°C° 0 mm 2 mps 743 mmHg 69%
    21:00 +20°C° 0 mm 2 mps 743 mmHg 71%
    22:00 +20°C° 0 mm 2 mps 743 mmHg 72%
    23:00 +19°C° 0 mm 2 mps 743 mmHg 73%
    Mostrar más